Bangor, ME

11:39 PM EDT on October 20, 2019 (GMT -0400)
Bangor International

Weather History for KBGR - August, 2019

Change the Weather History Date:

Friday, August 16, 2019

  Actual Average Record
Temperature  
Mean Temperature 65 °F 67 °F  
Max Temperature 75 °F 79 °F 98 °F (1944)
Min Temperature 55 °F 56 °F 41 °F (1940)
Degree Days  
Heating Degree Days 0 1  
Month to date heating degree days 1 16  
Since 1 June heating degree days 91 146  
Since 1 July heating degree days 1 39  
Cooling Degree Days 0 3  
Month to date cooling degree days 55 62  
Year to date cooling degree days 281 252  
Since 1 June cooling degree days 281 246  
Growing Degree Days 14 (Base 50)    
Moisture  
Dew Point 58 °F    
Average Humidity 75    
Maximum Humidity 100    
Minimum Humidity 49    
Precipitation  
Precipitation 0.23 in 0.09 in 2.74 in (1981)
Month to date precipitation 4.08 1.64  
Year to date precipitation 32.75 24.91  
Snow  
Snow 0.00 in 0.00 in 0.00 in (2002)
Month to date snowfall 0.0 0.0  
Since 1 June snowfall 0.0 0.0  
Since 1 July snowfall 0.0 0.0  
Snow Depth 0.00 in    
Sea Level Pressure  
Sea Level Pressure 30.09 in    
Wind  
Wind Speed 3 mph (South)    
Max Wind Speed 15 mph    
Max Gust Speed 18 mph    
Visibility 9 miles    
Events Rain    
T = Trace of Precipitation, MM = Missing Value Source: NWS Daily Summary

Daily Weather History Graph

Daily Weather History Graph

Search for Another Location

Airport or City:

Astronomy

Aug. 16, 2019 Rise Set
Actual Time 5:38 AM EDT 7:40 PM EDT
Civil Twilight 5:06 AM EDT 8:11 PM EDT
Nautical Twilight 4:27 AM EDT 8:50 PM EDT
Astronomical Twilight 3:44 AM EDT 9:33 PM EDT
Moon 8:36 PM EDT (8/16) 6:26 AM EDT (8/16)
Length of Visible Light 15h 05m
Length of Day
14h 01m
Full, 99% of the Moon is Illuminated
Aug 16
Full
Aug 23
Last Quarter
Aug 30
New
Sep 5
First Quarter
Sep 14
Full

Hourly Weather History & Observations

Time (EDT) Temp. Dew Point Humidity Pressure Visibility Wind Dir Wind Speed Gust Speed Precip Events Conditions
12:53 AM 57.9 °F 57.0 °F 97% 30.07 in 10.0 mi Calm Calm - N/A   Partly Cloudy
1:53 AM 57.0 °F 55.9 °F 96% 30.07 in 10.0 mi Calm Calm - N/A   Scattered Clouds
2:53 AM 55.9 °F 55.0 °F 97% 30.07 in 10.0 mi Calm Calm - N/A   Scattered Clouds
3:53 AM 55.9 °F 55.0 °F 97% 30.06 in 10.0 mi Calm Calm - N/A   Scattered Clouds
4:53 AM 57.0 °F 55.9 °F 96% 30.07 in 10.0 mi SSW 3.5 mph - N/A   Mostly Cloudy
5:53 AM 55.9 °F 55.0 °F 97% 30.07 in 10.0 mi Calm Calm - N/A   Mostly Cloudy
6:53 AM 59.0 °F 57.0 °F 93% 30.08 in 10.0 mi Calm Calm - N/A   Overcast
7:53 AM 60.1 °F 57.9 °F 93% 30.12 in 3.0 mi Calm Calm - 0.04 in Rain Rain
8:53 AM 60.1 °F 59.0 °F 96% 30.13 in 2.5 mi NW 3.5 mph - 0.09 in Rain Rain
9:06 AM 61.0 °F 59.0 °F 93% 30.14 in 3.0 mi Calm Calm - 0.02 in Rain Rain
9:53 AM 61.0 °F 60.1 °F 97% 30.14 in 3.0 mi SE 5.8 mph - 0.08 in Rain Light Rain
10:53 AM 63.0 °F 61.0 °F 93% 30.12 in 10.0 mi ESE 6.9 mph - 0.02 in   Overcast
11:53 AM 66.0 °F 60.1 °F 81% 30.10 in 10.0 mi SSE 9.2 mph - N/A   Overcast
12:53 PM 70.0 °F 60.1 °F 71% 30.09 in 10.0 mi SSE 9.2 mph - N/A   Overcast
1:53 PM 73.0 °F 59.0 °F 61% 30.09 in 10.0 mi SSW 10.4 mph - N/A   Scattered Clouds
2:53 PM 73.0 °F 57.0 °F 57% 30.07 in 10.0 mi South 8.1 mph - N/A   Mostly Cloudy
3:53 PM 73.9 °F 54.0 °F 50% 30.06 in 10.0 mi South 11.5 mph - N/A   Mostly Cloudy
4:53 PM 73.9 °F 55.9 °F 53% 30.06 in 10.0 mi SSW 10.4 mph - N/A   Mostly Cloudy
5:53 PM 71.1 °F 55.9 °F 59% 30.06 in 10.0 mi South 10.4 mph - N/A   Mostly Cloudy
6:53 PM 69.1 °F 55.9 °F 63% 30.06 in 10.0 mi South 6.9 mph - N/A   Scattered Clouds
7:53 PM 66.9 °F 57.0 °F 70% 30.07 in 10.0 mi South 8.1 mph - N/A   Mostly Cloudy
8:53 PM 64.9 °F 57.9 °F 78% 30.08 in 10.0 mi South 6.9 mph - N/A   Scattered Clouds
9:53 PM 63.0 °F 59.0 °F 87% 30.09 in 10.0 mi South 6.9 mph - N/A   Mostly Cloudy
10:53 PM 62.1 °F 59.0 °F 90% 30.10 in 10.0 mi SSE 4.6 mph - N/A   Mostly Cloudy
11:42 PM 61.0 °F 59.0 °F 93% 30.11 in 10.0 mi South 6.9 mph - N/A   Mostly Cloudy
11:53 PM 61.0 °F 59.0 °F 93% 30.10 in 10.0 mi South 5.8 mph - N/A   Overcast